Home   Weather   Kodiak   Past weeks

Flag for USA Past Weather in Kodiak, Alaska, USA — Yesterday and Last 2 Weeks

Now
43 °F

Overcast.


Feels Like: 39 °F
Forecast: 39 / 44 °F
Wind: 6 mph from Northeast

Location: Kodiak Weather Reporting Station

Current Time: Apr 25, 2017 at 10:09:57 pm

Latest Report: Apr 25, 2017 at 9:28 pm


Visibility: 10 mi

Pressure: 29.53 "Hg

Humidity: 82%

Dew Point: 38 °F

Location of KodiakLocation

Past Weather in Kodiak — Graph

°F

Kodiak Temperature Yesterday

Maximum temperature yesterday: 43 °F (at 10:53 am)
Minimum temperature yesterday: 40 °F (at 4:36 am)
Average temperature yesterday: 42 °F

High & Low Weather Summary for the Past Weeks

 TemperatureHumidityPressure
High53 °F (Apr 12, 3:53 pm)100% (Apr 16, 8:53 am)30.38 "Hg (Apr 16, 8:53 am)
Low28 °F (Apr 19, 4:53 am)30% (Apr 13, 12:53 pm)29.48 "Hg (Apr 24, 8:53 pm)
Average42 °F78%29.90 "Hg
* Reported Apr 10 8:53 pm — Apr 25 8:53 pm, Kodiak, Weather by CustomWeather, © 2017

Note: Actual official high and low records may vary slightly from our data, if they occured in-between our weather recording intervals... More about our weather records

Advertising

Kodiak Weather History for the Previous 24 Hours

Scroll right to see more
 ConditionsComfort  
Time TempWeatherWind HumidityBarometerVisibility
8:53 pm
Tue, Apr 25
44 °FMostly cloudy.9 mph79%29.52 "Hg10 mi
8:16 pm44 °FOvercast.10 mph79%29.52 "Hg10 mi
7:53 pm45 °FMostly cloudy.8 mph80%29.52 "Hg10 mi
7:02 pm45 °FMostly cloudy.9 mph80%29.51 "Hg10 mi
6:53 pm45 °FMore clouds than sun.12 mph80%29.51 "Hg10 mi
5:53 pm45 °FPartly sunny.8 mph76%29.51 "Hg10 mi
4:53 pm47 °FBroken clouds.9 mph71%29.52 "Hg10 mi
3:53 pm47 °FBroken clouds.7 mph71%29.52 "Hg10 mi
2:53 pm46 °FOvercast.8 mph68%29.52 "Hg10 mi
1:53 pm46 °FOvercast.5 mph66%29.53 "Hg10 mi
1:32 pm45 °FMore clouds than sun.6 mph71%29.53 "Hg10 mi
12:53 pm44 °FOvercast.6 mph76%29.53 "Hg10 mi
11:53 am41 °FMore clouds than sun.5 mph86%29.54 "Hg10 mi
10:53 am41 °FCloudy.7 mph82%29.53 "Hg10 mi
9:53 am41 °FCloudy.10 mph86%29.52 "Hg10 mi
8:53 am41 °FCloudy.5 mph89%29.52 "Hg10 mi
8:04 am40 °FMore clouds than sun.5 mph93%29.51 "Hg8 mi
7:53 am39 °FLight rain. Fog.3 mph96%29.52 "Hg4 mi
7:16 am39 °FMore clouds than sun.3 mph96%29.51 "Hg10 mi
6:53 am40 °FMostly cloudy.3 mph97%29.51 "Hg10 mi
6:21 am39 °FMostly cloudy.3 mph100%29.50 "Hg10 mi
6:08 am39 °FLow clouds.3 mph100%29.50 "Hg10 mi
4:53 am40 °FOvercast.7 mph93%29.49 "Hg10 mi
3:53 am40 °FLight rain. Overcast.3 mph93%29.50 "Hg7 mi
3:09 am40 °FLight rain. Mostly cloudy.3 mph93%29.49 "Hg10 mi
2:53 am40 °FOvercast.3 mph97%29.49 "Hg10 mi
2:35 am40 °FMostly cloudy.3 mph97%29.49 "Hg10 mi
1:53 am40 °FOvercast.8 mph93%29.49 "Hg10 mi
12:53 am40 °FMostly cloudy.6 mph93%29.48 "Hg10 mi
11:53 pm
Mon, Apr 24
42 °FLight rain. Fog.7 mph92%29.48 "Hg6 mi
11:12 pm42 °FLight rain. Overcast.8 mph92%29.48 "Hg7 mi
10:53 pm42 °FLight rain. Mostly cloudy.8 mph92%29.48 "Hg9 mi
10:38 pm42 °FLight rain. Overcast.12 mph92%29.48 "Hg10 mi
10:23 pm42 °FLight rain. Mostly cloudy.12 mph92%29.48 "Hg10 mi
Weather by CustomWeather, © 2017

See weather overviewHow to use our weather pages